Station DESW1 - Destruction Island, WA Image indicating link to RSS feed of recent meteorological observations for station DESW1


Conditions at DESW1 as of
(6:00 am CDT)
1100 GMT on 05/20/2024:
     

Click on the graph icon in the table below to see a time series plot of the last five days of that observation.

5-day plot - Wind Direction Wind Direction (WDIR):NNW ( 340 deg true )
5-day plot - Wind Speed Wind Speed (WSPD): 4 kts
5-day plot - Wind Gust Wind Gust (GST): 6 kts
5-day plot - Atmospheric Pressure Atmospheric Pressure (PRES):30.28 in
5-day plot - Pressure Tendency Pressure Tendency (PTDY):-0.01 in ( Falling )
5-day plot - Wind Speed at 10 Meters Wind Speed at 10 meters (WSPD10M): 4 kts
5-day plot - Wind Speed at 20 Meters Wind Speed at 20 meters (WSPD20M): 4 kts
5-day plot -  Wind Speed, Wind Gust and Atmospheric Pressure Combined plot of Wind Speed, Gust, and Air Pressure
Continuous Winds
TIME
(CDT)
5-day plot - Wind Direction WDIR 5-day plot - Wind Speed WSPD
6:00 amNNW ( 336 deg ) 5 kts
5:50 amNNW ( 346 deg ) 4 kts
5:40 amN ( 353 deg ) 3 kts
5:30 amNNW ( 345 deg ) 4 kts
5:20 amN ( 358 deg ) 2 kts
5:10 amNNE ( 27 deg ) 3 kts
 
Peak gust during the measurement hour
TIME
(CDT)
5-day plot - Gust Direction GDR 5-day plot - Gust Speed GST
5:57 amNNW ( 340 deg ) 7 kts
Previous observations
TIME
(CDT)
5-day plot - Wind Direction
WDIR
 
5-day plot - Wind Speed
WSPD
kts
5-day plot - Wind Gust
GST
kts
5-day plot - Wave Height
WVHT
ft
5-day plot - Dominant Wave Period
DPD
sec
5-day plot - Average Wave Period
APD
sec
5-day plot - Mean Wave Direction
MWD
 
5-day plot - Atmospheric Pressure
PRES
in
5-day plot - Pressure Tendency
PTDY
in
5-day plot - Air Temperature
ATMP
°F
5-day plot - Water Temperature
WTMP
°F
5-day plot - Dew Point
DEWP
°F
5-day plot - Salinity
SAL
psu
5-day plot - Visibility
VIS
nmi
5-day plot - Tide (above MLLW)
TIDE
ft
2024-05-20 05:00 am NE 3 4----30.28+0.00------
2024-05-20 04:00 amNNW 8 9----30.29-0.01------
2024-05-20 03:00 amNNW 8 9----30.29+0.00------
2024-05-20 02:00 am N 4 5----30.29+0.01------
2024-05-20 01:00 amNNW 7 8----30.29+0.03------
2024-05-20 12:00 amNNW 10 10----30.29+0.01------
2024-05-19 11:00 pmNNW 15 16----30.27+0.00------
2024-05-19 10:00 pm NW 15 16----30.27-0.01------
2024-05-19 09:00 pm NW 16 19----30.28-0.01------
2024-05-19 08:00 pm NW 16 17----30.27-0.01------
2024-05-19 07:00 pm NW 15 16----30.28-0.01------
2024-05-19 06:00 pm NW 12 13----30.29-0.01------
2024-05-19 05:00 pm NW 13 14----30.28+0.00------
2024-05-19 04:00 pmWNW 12 13----30.29+0.02------
2024-05-19 03:00 pm NW 14 15----30.29+0.04------
2024-05-19 02:00 pmWNW 12 13----30.28+0.04------
2024-05-19 01:00 pmWNW 2 3----30.27+0.03------
2024-05-19 12:00 pmWSW 1 2----30.26+0.04------
2024-05-19 11:00 am S 1 4----30.24+0.05------
2024-05-19 10:00 amESE 3 4----30.24+0.05------
2024-05-19 09:00 am E 3 3----30.22+0.04------
2024-05-19 08:00 am SE 3 3----30.20+0.02------
2024-05-19 07:00 amESE 2 2----30.19+0.02------